"Sample Date","Sample Time","Sample Value","Units","Flow Rate","Sample Interval","Number Channels","Micron Size 0","Counts/Channel 0","Micron Size 1","Counts/Channel 1","Micron Size 2","Counts/Channel 2","Micron Size 3","Counts/Channel 3","Micron Size 4","Counts/Channel 4","Micron Size 5","Counts/Channel 5","Micron Size 6","Counts/Channel 6","Micron Size 7","Counts/Channel 7","Micron Size 8","Counts/Channel 8","Micron Size 9","Counts/Channel 9","Micron Size 10","Counts/Channel 10","Micron Size 11","Counts/Channel 11","Micron Size 12","Counts/Channel 12","Micron Size 13","Counts/Channel 13","Micron Size 14","Counts/Channel 14","Micron Size 15","Counts/Channel 15","Micron Size 16","Counts/Channel 16","Micron Size 17","Counts/Channel 17","Micron Size 18","Counts/Channel 18","Micron Size 19","Counts/Channel 19","Micron Size 20","Counts/Channel 20","Micron Size 21","Counts/Channel 21","Micron Size 22","Counts/Channel 22","Micron Size 23","Counts/Channel 23","Micron Size 24","Counts/Channel 24","Micron Size 25","Counts/Channel 25","Micron Size 26","Counts/Channel 26","Micron Size 27","Counts/Channel 27","Micron Size 28","Counts/Channel 28","Micron Size 29","Counts/Channel 29","Micron Size 30","Counts/Channel 30","Micron Size 31","Counts/Channel 31"
"04/04/08","15:00:04",23580.000,"cc",28290.857,6.00,6,0.100,20677.000,0.200,1171.000,0.300,660.000,0.500,777.000,1.000,295.000,5.000,0
"04/04/08","15:00:10",23126.000,"cc",28282.887,6.00,6,0.100,20254.000,0.200,1166.000,0.300,655.000,0.500,768.000,1.000,283.000,5.000,0
"04/04/08","15:00:16",23170.000,"cc",28229.842,6.00,6,0.100,20343.000,0.200,1108.000,0.300,652.000,0.500,786.000,1.000,281.000,5.000,0
"04/04/08","15:00:22",22680.000,"cc",28311.469,6.00,6,0.100,19770.000,0.200,1164.000,0.300,709.000,0.500,757.000,1.000,280.000,5.000,0
"04/04/08","15:00:28",23134.000,"cc",28348.305,6.00,6,0.100,20167.000,0.200,1177.000,0.300,726.000,0.500,765.000,1.000,299.000,5.000,0
"04/04/08","15:00:34",23412.000,"cc",28269.190,6.00,6,0.100,20340.000,0.200,1191.000,0.300,768.000,0.500,786.000,1.000,327.000,5.000,0
"04/04/08","15:00:40",23398.000,"cc",28326.088,6.00,6,0.100,20257.000,0.200,1232.000,0.300,761.000,0.500,847.000,1.000,301.000,5.000,0
"04/04/08","15:00:46",23199.000,"cc",28348.994,6.00,6,0.100,19959.000,0.200,1251.000,0.300,750.000,0.500,919.000,1.000,320.000,5.000,0
"04/04/08","15:00:52",23023.000,"cc",28371.803,6.00,6,0.100,19940.000,0.200,1179.000,0.300,752.000,0.500,838.000,1.000,314.000,5.000,0
"04/04/08","15:00:58",22766.000,"cc",28225.621,6.00,6,0.100,19783.000,0.200,1193.000,0.300,711.000,0.500,782.000,1.000,297.000,5.000,0
"04/04/08","15:01:04",22793.000,"cc",28346.566,6.00,6,0.100,19849.000,0.200,1174.000,0.300,675.000,0.500,777.000,1.000,318.000,5.000,0
"04/04/08","15:01:10",22784.000,"cc",28294.879,6.00,6,0.100,19722.000,0.200,1211.000,0.300,728.000,0.500,815.000,1.000,308.000,5.000,0
"04/04/08","15:01:16",22529.000,"cc",28335.102,6.00,6,0.100,19569.000,0.200,1215.000,0.300,685.000,0.500,781.000,1.000,279.000,5.000,0
"04/04/08","15:01:22",22899.000,"cc",28381.387,6.00,6,0.100,19774.000,0.200,1253.000,0.300,759.000,0.500,805.000,1.000,308.000,5.000,0
"04/04/08","15:01:28",22571.000,"cc",28319.662,6.00,6,0.100,19564.000,0.200,1160.000,0.300,738.000,0.500,800.000,1.000,309.000,5.000,0
"04/04/08","15:01:34",22807.000,"cc",28286.514,6.00,6,0.100,19880.000,0.200,1152.000,0.300,716.000,0.500,783.000,1.000,276.000,5.000,0
"04/04/08","15:01:40",22697.000,"cc",28274.795,6.00,6,0.100,19739.000,0.200,1161.000,0.300,706.000,0.500,821.000,1.000,270.000,5.000,0
"04/04/08","15:01:46",22548.000,"cc",28323.717,6.00,6,0.100,19539.000,0.200,1221.000,0.300,710.000,0.500,762.000,1.000,316.000,5.000,0
"04/04/08","15:01:52",22872.000,"cc",28324.975,6.00,6,0.100,19774.000,0.200,1170.000,0.300,751.000,0.500,868.000,1.000,309.000,5.000,0
"04/04/08","15:01:58",22874.000,"cc",28366.582,6.00,6,0.100,19733.000,0.200,1202.000,0.300,760.000,0.500,862.000,1.000,317.000,5.000,0
"04/04/08","15:02:04",23052.000,"cc",28262.225,6.00,6,0.100,19953.000,0.200,1237.000,0.300,725.000,0.500,816.000,1.000,321.000,5.000,0
"04/04/08","15:02:10",22729.000,"cc",28326.606,6.00,6,0.100,19702.000,0.200,1114.000,0.300,763.000,0.500,815.000,1.000,335.000,5.000,0
"04/04/08","15:02:16",23086.000,"cc",28293.506,6.00,6,0.100,20029.000,0.200,1251.000,0.300,705.000,0.500,805.000,1.000,296.000,5.000,0
"04/04/08","15:02:22",23145.000,"cc",28373.350,6.00,6,0.100,20022.000,0.200,1248.000,0.300,761.000,0.500,833.000,1.000,281.000,5.000,0
"04/04/08","15:02:28",22626.000,"cc",28345.113,6.00,6,0.100,19597.000,0.200,1177.000,0.300,699.000,0.500,845.000,1.000,308.000,5.000,0
"04/04/08","15:02:34",22869.000,"cc",28264.693,6.00,6,0.100,19687.000,0.200,1206.000,0.300,781.000,0.500,885.000,1.000,310.000,5.000,0
"04/04/08","15:02:40",22888.000,"cc",28277.176,6.00,6,0.100,19691.000,0.200,1222.000,0.300,763.000,0.500,892.000,1.000,320.000,5.000,0
"04/04/08","15:02:46",22713.000,"cc",28369.518,6.00,6,0.100,19671.000,0.200,1170.000,0.300,736.000,0.500,832.000,1.000,304.000,5.000,0
"04/04/08","15:02:52",23342.000,"cc",28315.162,6.00,6,0.100,20089.000,0.200,1219.000,0.300,772.000,0.500,922.000,1.000,340.000,5.000,0
"04/04/08","15:02:58",22817.000,"cc",28274.824,6.00,6,0.100,19816.000,0.200,1178.000,0.300,710.000,0.500,805.000,1.000,308.000,5.000,0
"04/04/08","15:03:04",22926.000,"cc",28300.438,6.00,6,0.100,19753.000,0.200,1180.000,0.300,764.000,0.500,876.000,1.000,353.000,5.000,0
"04/04/08","15:03:10",23023.000,"cc",28369.967,6.00,6,0.100,20192.000,0.200,1083.000,0.300,736.000,0.500,716.000,1.000,296.000,5.000,0
"04/04/08","15:03:16",23571.000,"cc",28284.898,6.00,6,0.100,20761.000,0.200,1060.000,0.300,693.000,0.500,763.000,1.000,294.000,5.000,0
"04/04/08","15:03:22",23390.000,"cc",28372.086,6.00,6,0.100,20369.000,0.200,1170.000,0.300,723.000,0.500,823.000,1.000,305.000,5.000,0
"04/04/08","15:03:28",23301.000,"cc",28337.373,6.00,6,0.100,20368.000,0.200,1144.000,0.300,719.000,0.500,773.000,1.000,297.000,5.000,0
"04/04/08","15:03:34",23515.000,"cc",28339.678,6.00,6,0.100,20644.000,0.200,1188.000,0.300,656.000,0.500,728.000,1.000,299.000,5.000,0
"04/04/08","15:03:40",23148.000,"cc",28329.910,6.00,6,0.100,20169.000,0.200,1189.000,0.300,713.000,0.500,768.000,1.000,309.000,5.000,0
"04/04/08","15:03:46",23706.000,"cc",28243.998,6.00,6,0.100,20659.000,0.200,1213.000,0.300,712.000,0.500,813.000,1.000,309.000,5.000,0
"04/04/08","15:03:52",23663.000,"cc",28320.758,6.00,6,0.100,20641.000,0.200,1154.000,0.300,762.000,0.500,811.000,1.000,295.000,5.000,0
"04/04/08","15:03:58",23530.000,"cc",28336.287,6.00,6,0.100,20716.000,0.200,1102.000,0.300,672.000,0.500,753.000,1.000,287.000,5.000,0
"04/04/08","15:04:04",23930.000,"cc",28229.443,6.00,6,0.100,20947.000,0.200,1145.000,0.300,705.000,0.500,849.000,1.000,284.000,5.000,0
"04/04/08","15:04:10",23996.000,"cc",28306.186,6.00,6,0.100,20895.000,0.200,1221.000,0.300,717.000,0.500,855.000,1.000,308.000,5.000,0
"04/04/08","15:04:16",23428.000,"cc",28358.984,6.00,6,0.100,20667.000,0.200,1099.000,0.300,648.000,0.500,749.000,1.000,265.000,5.000,0
"04/04/08","15:04:22",23780.000,"cc",28321.412,6.00,6,0.100,21200.000,0.200,1022.000,0.300,635.000,0.500,699.000,1.000,224.000,5.000,0
"04/04/08","15:04:28",23728.000,"cc",28346.424,6.00,6,0.100,21211.000,0.200,1054.000,0.300,574.000,0.500,632.000,1.000,257.000,5.000,0
"04/04/08","15:04:34",23763.000,"cc",28342.008,6.00,6,0.100,21114.000,0.200,1057.000,0.300,616.000,0.500,696.000,1.000,280.000,5.000,0
"04/04/08","15:04:40",23884.000,"cc",28345.770,6.00,6,0.100,21133.000,0.200,1090.000,0.300,649.000,0.500,766.000,1.000,246.000,5.000,0
"04/04/08","15:04:46",24189.000,"cc",28333.609,6.00,6,0.100,21510.000,0.200,1028.000,0.300,633.000,0.500,734.000,1.000,284.000,5.000,0
"04/04/08","15:04:52",24330.000,"cc",28211.865,6.00,6,0.100,21490.000,0.200,1151.000,0.300,651.000,0.500,766.000,1.000,272.000,5.000,0
"04/04/08","15:04:58",24517.000,"cc",28306.680,6.00,6,0.100,21737.000,0.200,1119.000,0.300,654.000,0.500,769.000,1.000,238.000,5.000,0
"04/04/08","15:05:04",24190.000,"cc",28330.193,6.00,6,0.100,21538.000,0.200,1074.000,0.300,625.000,0.500,704.000,1.000,249.000,5.000,0
"04/04/08","15:05:10",24145.000,"cc",28288.211,6.00,6,0.100,21480.000,0.200,1047.000,0.300,614.000,0.500,729.000,1.000,275.000,5.000,0
"04/04/08","15:05:16",23912.000,"cc",28304.500,6.00,6,0.100,21309.000,0.200,1015.000,0.300,581.000,0.500,756.000,1.000,250.000,5.000,1.000
"04/04/08","15:05:22",24136.000,"cc",28315.262,6.00,6,0.100,21343.000,0.200,1151.000,0.300,646.000,0.500,731.000,1.000,265.000,5.000,0
"04/04/08","15:05:28",24469.000,"cc",28367.861,6.00,6,0.100,21629.000,0.200,1080.000,0.300,680.000,0.500,779.000,1.000,301.000,5.000,0
"04/04/08","15:05:34",24004.000,"cc",28305.262,6.00,6,0.100,21189.000,0.200,1126.000,0.300,676.000,0.500,751.000,1.000,262.000,5.000,0
"04/04/08","15:05:40",24335.000,"cc",28329.496,6.00,6,0.100,21514.000,0.200,1083.000,0.300,674.000,0.500,778.000,1.000,286.000,5.000,0
"04/04/08","15:05:46",23997.000,"cc",28343.902,6.00,6,0.100,21213.000,0.200,1139.000,0.300,618.000,0.500,717.000,1.000,310.000,5.000,0
"04/04/08","15:05:52",24652.000,"cc",28313.949,6.00,6,0.100,21764.000,0.200,1161.000,0.300,687.000,0.500,781.000,1.000,259.000,5.000,0
"04/04/08","15:05:58",24547.000,"cc",28362.545,6.00,6,0.100,21814.000,0.200,1083.000,0.300,637.000,0.500,735.000,1.000,278.000,5.000,0
"04/04/08","15:06:04",24288.000,"cc",28281.461,6.00,6,0.100,21511.000,0.200,1069.000,0.300,688.000,0.500,733.000,1.000,287.000,5.000,0
"04/04/08","15:06:10",24196.000,"cc",28244.473,6.00,6,0.100,21377.000,0.200,1100.000,0.300,619.000,0.500,790.000,1.000,309.000,5.000,1.000
"04/04/08","15:06:16",24549.000,"cc",28324.443,6.00,6,0.100,21787.000,0.200,1111.000,0.300,657.000,0.500,735.000,1.000,259.000,5.000,0
"04/04/08","15:06:22",24497.000,"cc",28323.092,6.00,6,0.100,21786.000,0.200,1068.000,0.300,652.000,0.500,710.000,1.000,281.000,5.000,0
"04/04/08","15:06:28",24481.000,"cc",28265.102,6.00,6,0.100,21742.000,0.200,1079.000,0.300,643.000,0.500,765.000,1.000,252.000,5.000,0
"04/04/08","15:06:34",24602.000,"cc",28366.830,6.00,6,0.100,21858.000,0.200,1093.000,0.300,639.000,0.500,738.000,1.000,274.000,5.000,0
"04/04/08","15:06:40",24097.000,"cc",28311.699,6.00,6,0.100,21548.000,0.200,1016.000,0.300,617.000,0.500,684.000,1.000,232.000,5.000,0
"04/04/08","15:06:46",23982.000,"cc",28329.873,6.00,6,0.100,21498.000,0.200,1025.000,0.300,581.000,0.500,680.000,1.000,198.000,5.000,0
"04/04/08","15:06:52",23730.000,"cc",28298.758,6.00,6,0.100,21297.000,0.200,998.000,0.300,568.000,0.500,645.000,1.000,222.000,5.000,0
"04/04/08","15:06:58",23782.000,"cc",28332.520,6.00,6,0.100,21322.000,0.200,966.000,0.300,602.000,0.500,656.000,1.000,236.000,5.000,0
"04/04/08","15:07:04",23873.000,"cc",28269.346,6.00,6,0.100,21482.000,0.200,957.000,0.300,569.000,0.500,638.000,1.000,227.000,5.000,0
"04/04/08","15:07:10",23301.000,"cc",28350.748,6.00,6,0.100,20991.000,0.200,935.000,0.300,536.000,0.500,614.000,1.000,225.000,5.000,0
"04/04/08","15:07:16",23671.000,"cc",28331.709,6.00,6,0.100,21336.000,0.200,975.000,0.300,530.000,0.500,621.000,1.000,209.000,5.000,0
"04/04/08","15:07:22",23751.000,"cc",28269.898,6.00,6,0.100,21433.000,0.200,921.000,0.300,500.000,0.500,666.000,1.000,231.000,5.000,0
"04/04/08","15:07:28",23960.000,"cc",28274.168,6.00,6,0.100,21565.000,0.200,945.000,0.300,566.000,0.500,651.000,1.000,233.000,5.000,0
"04/04/08","15:07:34",23860.000,"cc",28381.621,6.00,6,0.100,21430.000,0.200,976.000,0.300,608.000,0.500,623.000,1.000,223.000,5.000,0
"04/04/08","15:07:40",23852.000,"cc",28404.871,6.00,6,0.100,21392.000,0.200,1003.000,0.300,568.000,0.500,635.000,1.000,254.000,5.000,0
"04/04/08","15:07:46",23824.000,"cc",28268.115,6.00,6,0.100,21368.000,0.200,993.000,0.300,575.000,0.500,641.000,1.000,247.000,5.000,0
"04/04/08","15:07:52",24093.000,"cc",28257.018,6.00,6,0.100,21653.000,0.200,966.000,0.300,560.000,0.500,686.000,1.000,228.000,5.000,0
"04/04/08","15:07:58",24110.000,"cc",28252.379,6.00,6,0.100,21724.000,0.200,913.000,0.300,593.000,0.500,664.000,1.000,216.000,5.000,0
"04/04/08","15:08:04",24232.000,"cc",28310.361,6.00,6,0.100,21800.000,0.200,1021.000,0.300,563.000,0.500,613.000,1.000,235.000,5.000,0
"04/04/08","15:08:10",24356.000,"cc",28376.023,6.00,6,0.100,21841.000,0.200,988.000,0.300,584.000,0.500,693.000,1.000,250.000,5.000,0
"04/04/08","15:08:16",24165.000,"cc",28361.893,6.00,6,0.100,21674.000,0.200,980.000,0.300,593.000,0.500,651.000,1.000,267.000,5.000,0
"04/04/08","15:08:22",24448.000,"cc",28342.879,6.00,6,0.100,21749.000,0.200,1037.000,0.300,671.000,0.500,722.000,1.000,269.000,5.000,0
"04/04/08","15:08:28",24487.000,"cc",28277.240,6.00,6,0.100,21910.000,0.200,1014.000,0.300,590.000,0.500,726.000,1.000,247.000,5.000,0
"04/04/08","15:08:34",24455.000,"cc",28324.516,6.00,6,0.100,22072.000,0.200,905.000,0.300,582.000,0.500,664.000,1.000,232.000,5.000,0
"04/04/08","15:08:40",24344.000,"cc",28298.902,6.00,6,0.100,21872.000,0.200,976.000,0.300,591.000,0.500,659.000,1.000,246.000,5.000,0
"04/04/08","15:08:46",23972.000,"cc",28291.938,6.00,6,0.100,21427.000,0.200,1054.000,0.300,601.000,0.500,627.000,1.000,263.000,5.000,0
"04/04/08","15:08:52",24377.000,"cc",28298.721,6.00,6,0.100,21953.000,0.200,974.000,0.300,589.000,0.500,620.000,1.000,241.000,5.000,0
"04/04/08","15:08:58",24669.000,"cc",28277.387,6.00,6,0.100,22063.000,0.200,1051.000,0.300,620.000,0.500,694.000,1.000,241.000,5.000,0
"04/04/08","15:09:04",24806.000,"cc",28329.686,6.00,6,0.100,22053.000,0.200,1086.000,0.300,638.000,0.500,755.000,1.000,274.000,5.000,0
"04/04/08","15:09:10",24673.000,"cc",28285.795,6.00,6,0.100,21975.000,0.200,1074.000,0.300,621.000,0.500,719.000,1.000,284.000,5.000,0
"04/04/08","15:09:16",24460.000,"cc",28374.102,6.00,6,0.100,21878.000,0.200,1001.000,0.300,634.000,0.500,717.000,1.000,230.000,5.000,0
"04/04/08","15:09:22",24358.000,"cc",28366.049,6.00,6,0.100,21748.000,0.200,1040.000,0.300,618.000,0.500,716.000,1.000,236.000,5.000,0
"04/04/08","15:09:28",24575.000,"cc",28257.965,6.00,6,0.100,21984.000,0.200,1053.000,0.300,619.000,0.500,684.000,1.000,235.000,5.000,0
"04/04/08","15:09:34",24905.000,"cc",28276.395,6.00,6,0.100,22172.000,0.200,1054.000,0.300,662.000,0.500,759.000,1.000,258.000,5.000,0
"04/04/08","15:09:40",24832.000,"cc",28382.881,6.00,6,0.100,22078.000,0.200,1111.000,0.300,651.000,0.500,737.000,1.000,255.000,5.000,0
"04/04/08","15:09:46",24685.000,"cc",28287.059,6.00,6,0.100,21920.000,0.200,1038.000,0.300,647.000,0.500,789.000,1.000,291.000,5.000,0
"04/04/08","15:09:52",24726.000,"cc",28312.557,6.00,6,0.100,21986.000,0.200,1090.000,0.300,619.000,0.500,757.000,1.000,274.000,5.000,0
"04/04/08","15:09:58",24767.000,"cc",28372.203,6.00,6,0.100,22137.000,0.200,1091.000,0.300,572.000,0.500,737.000,1.000,230.000,5.000,0
"04/04/08","15:10:04",24554.000,"cc",28307.465,6.00,6,0.100,21862.000,0.200,1076.000,0.300,644.000,0.500,705.000,1.000,267.000,5.000,0
"04/04/08","15:10:10",24743.000,"cc",28275.516,6.00,6,0.100,22165.000,0.200,1017.000,0.300,641.000,0.500,663.000,1.000,257.000,5.000,0
"04/04/08","15:10:16",24520.000,"cc",28328.563,6.00,6,0.100,22084.000,0.200,975.000,0.300,584.000,0.500,647.000,1.000,230.000,5.000,0
"04/04/08","15:10:22",24617.000,"cc",28369.488,6.00,6,0.100,22148.000,0.200,974.000,0.300,571.000,0.500,656.000,1.000,268.000,5.000,0
"04/04/08","15:10:28",25059.000,"cc",28308.467,6.00,6,0.100,22632.000,0.200,951.000,0.300,551.000,0.500,670.000,1.000,255.000,5.000,0
"04/04/08","15:10:34",24588.000,"cc",28323.213,6.00,6,0.100,22238.000,0.200,946.000,0.300,541.000,0.500,623.000,1.000,240.000,5.000,0
"04/04/08","15:10:40",24712.000,"cc",28325.232,6.00,6,0.100,22372.000,0.200,974.000,0.300,494.000,0.500,651.000,1.000,221.000,5.000,0
"04/04/08","15:10:46",24703.000,"cc",28269.930,6.00,6,0.100,22374.000,0.200,945.000,0.300,521.000,0.500,630.000,1.000,233.000,5.000,0
"04/04/08","15:10:52",24595.000,"cc",28382.842,6.00,6,0.100,22204.000,0.200,969.000,0.300,539.000,0.500,645.000,1.000,238.000,5.000,0
"04/04/08","15:10:58",24551.000,"cc",28313.492,6.00,6,0.100,22213.000,0.200,984.000,0.300,530.000,0.500,598.000,1.000,226.000,5.000,0
"04/04/08","15:11:04",24672.000,"cc",28254.773,6.00,6,0.100,22364.000,0.200,907.000,0.300,525.000,0.500,650.000,1.000,226.000,5.000,0
"04/04/08","15:11:10",24868.000,"cc",28289.053,6.00,6,0.100,22347.000,0.200,995.000,0.300,578.000,0.500,691.000,1.000,257.000,5.000,0
"04/04/08","15:11:16",25036.000,"cc",28375.762,6.00,6,0.100,22479.000,0.200,1015.000,0.300,615.000,0.500,690.000,1.000,237.000,5.000,0
"04/04/08","15:11:22",24983.000,"cc",28327.156,6.00,6,0.100,22355.000,0.200,1065.000,0.300,595.000,0.500,728.000,1.000,240.000,5.000,0
"04/04/08","15:11:28",24678.000,"cc",28302.010,6.00,6,0.100,22087.000,0.200,1005.000,0.300,636.000,0.500,689.000,1.000,261.000,5.000,0
"04/04/08","15:11:34",24538.000,"cc",28322.705,6.00,6,0.100,22102.000,0.200,959.000,0.300,573.000,0.500,677.000,1.000,227.000,5.000,0
"04/04/08","15:11:40",24506.000,"cc",28291.141,6.00,6,0.100,22019.000,0.200,985.000,0.300,591.000,0.500,655.000,1.000,256.000,5.000,0
"04/04/08","15:11:46",24902.000,"cc",28326.920,6.00,6,0.100,22337.000,0.200,1045.000,0.300,575.000,0.500,675.000,1.000,270.000,5.000,0
"04/04/08","15:11:52",24599.000,"cc",28304.393,6.00,6,0.100,22044.000,0.200,1007.000,0.300,599.000,0.500,678.000,1.000,271.000,5.000,0
"04/04/08","15:11:58",24742.000,"cc",28303.717,6.00,6,0.100,22182.000,0.200,1046.000,0.300,593.000,0.500,682.000,1.000,239.000,5.000,0
"04/04/08","15:12:04",24641.000,"cc",28354.020,6.00,6,0.100,22127.000,0.200,1012.000,0.300,581.000,0.500,668.000,1.000,253.000,5.000,0
"04/04/08","15:12:10",24806.000,"cc",28283.115,6.00,6,0.100,22153.000,0.200,1032.000,0.300,609.000,0.500,736.000,1.000,276.000,5.000,0
"04/04/08","15:12:16",24669.000,"cc",28294.490,6.00,6,0.100,22069.000,0.200,1051.000,0.300,634.000,0.500,656.000,1.000,259.000,5.000,0
"04/04/08","15:12:22",24594.000,"cc",28376.354,6.00,6,0.100,21993.000,0.200,1062.000,0.300,617.000,0.500,674.000,1.000,248.000,5.000,0
"04/04/08","15:12:28",24568.000,"cc",28261.863,6.00,6,0.100,22078.000,0.200,982.000,0.300,609.000,0.500,665.000,1.000,234.000,5.000,0
"04/04/08","15:12:34",24658.000,"cc",28290.955,6.00,6,0.100,22062.000,0.200,1009.000,0.300,611.000,0.500,726.000,1.000,250.000,5.000,0
"04/04/08","15:12:40",24712.000,"cc",28335.756,6.00,6,0.100,22126.000,0.200,1029.000,0.300,587.000,0.500,703.000,1.000,267.000,5.000,0
"04/04/08","15:12:46",24545.000,"cc",28368.367,6.00,6,0.100,21932.000,0.200,998.000,0.300,641.000,0.500,714.000,1.000,260.000,5.000,0
"04/04/08","15:12:52",24896.000,"cc",28325.527,6.00,6,0.100,22189.000,0.200,1072.000,0.300,608.000,0.500,744.000,1.000,283.000,5.000,0
"04/04/08","15:12:58",24672.000,"cc",28352.772,6.00,6,0.100,22053.000,0.200,1079.000,0.300,592.000,0.500,705.000,1.000,243.000,5.000,0
"04/04/08","15:13:04",24929.000,"cc",28293.979,6.00,6,0.100,22249.000,0.200,1013.000,0.300,674.000,0.500,722.000,1.000,271.000,5.000,0
"04/04/08","15:13:10",24818.000,"cc",28272.000,6.00,6,0.100,22199.000,0.200,1020.000,0.300,633.000,0.500,710.000,1.000,256.000,5.000,0
"04/04/08","15:13:16",24719.000,"cc",28309.166,6.00,6,0.100,22018.000,0.200,1090.000,0.300,621.000,0.500,730.000,1.000,260.000,5.000,0
"04/04/08","15:13:22",25026.000,"cc",28353.502,6.00,6,0.100,22427.000,0.200,1032.000,0.300,609.000,0.500,687.000,1.000,271.000,5.000,0
"04/04/08","15:13:28",25077.000,"cc",28254.529,6.00,6,0.100,22344.000,0.200,1044.000,0.300,671.000,0.500,729.000,1.000,289.000,5.000,0
"04/04/08","15:13:34",24360.000,"cc",28330.143,6.00,6,0.100,21871.000,0.200,1001.000,0.300,536.000,0.500,687.000,1.000,265.000,5.000,0
"04/04/08","15:13:40",24698.000,"cc",28382.481,6.00,6,0.100,22195.000,0.200,989.000,0.300,579.000,0.500,674.000,1.000,261.000,5.000,0
"04/04/08","15:13:46",24925.000,"cc",28311.266,6.00,6,0.100,22209.000,0.200,1061.000,0.300,615.000,0.500,775.000,1.000,265.000,5.000,0
"04/04/08","15:13:52",25008.000,"cc",28278.662,6.00,6,0.100,22378.000,0.200,1046.000,0.300,574.000,0.500,729.000,1.000,281.000,5.000,0
"04/04/08","15:13:58",24961.000,"cc",28293.588,6.00,6,0.100,22300.000,0.200,1023.000,0.300,634.000,0.500,733.000,1.000,271.000,5.000,0
"04/04/08","15:14:04",24327.000,"cc",28300.065,6.00,6,0.100,21953.000,0.200,915.000,0.300,566.000,0.500,647.000,1.000,246.000,5.000,0
"04/04/08","15:14:10",24516.000,"cc",28346.275,6.00,6,0.100,22183.000,0.200,903.000,0.300,564.000,0.500,642.000,1.000,224.000,5.000,0
"04/04/08","15:14:16",24751.000,"cc",28314.803,6.00,6,0.100,22419.000,0.200,927.000,0.300,551.000,0.500,634.000,1.000,220.000,5.000,0
"04/04/08","15:14:22",24355.000,"cc",28273.670,6.00,6,0.100,22173.000,0.200,912.000,0.300,491.000,0.500,569.000,1.000,210.000,5.000,0
"04/04/08","15:14:28",24311.000,"cc",28274.324,6.00,6,0.100,22138.000,0.200,900.000,0.300,479.000,0.500,551.000,1.000,243.000,5.000,0
"04/04/08","15:14:34",24078.000,"cc",28284.229,6.00,6,0.100,21759.000,0.200,938.000,0.300,556.000,0.500,596.000,1.000,229.000,5.000,0
"04/04/08","15:14:40",24231.000,"cc",28368.148,6.00,6,0.100,21810.000,0.200,902.000,0.300,603.000,0.500,667.000,1.000,249.000,5.000,0
"04/04/08","15:14:46",24218.000,"cc",28350.691,6.00,6,0.100,21893.000,0.200,902.000,0.300,511.000,0.500,649.000,1.000,263.000,5.000,0
"04/04/08","15:14:52",24536.000,"cc",28325.484,6.00,6,0.100,22111.000,0.200,987.000,0.300,554.000,0.500,639.000,1.000,245.000,5.000,0
"04/04/08","15:14:58",24439.000,"cc",28345.561,6.00,6,0.100,22066.000,0.200,915.000,0.300,553.000,0.500,669.000,1.000,236.000,5.000,0
"04/04/08","15:15:04",24149.000,"cc",28305.748,6.00,6,0.100,21780.000,0.200,954.000,0.300,522.000,0.500,664.000,1.000,229.000,5.000,0
"04/04/08","15:15:10",24401.000,"cc",28324.496,6.00,6,0.100,21993.000,0.200,960.000,0.300,550.000,0.500,652.000,1.000,246.000,5.000,0
"04/04/08","15:15:16",24291.000,"cc",28376.729,6.00,6,0.100,21990.000,0.200,913.000,0.300,529.000,0.500,628.000,1.000,231.000,5.000,0
"04/04/08","15:15:22",24236.000,"cc",28337.975,6.00,6,0.100,21987.000,0.200,899.000,0.300,523.000,0.500,597.000,1.000,230.000,5.000,0
"04/04/08","15:15:28",24345.000,"cc",28284.070,6.00,6,0.100,22108.000,0.200,865.000,0.300,550.000,0.500,589.000,1.000,233.000,5.000,0
"04/04/08","15:15:34",24591.000,"cc",28294.561,6.00,6,0.100,22197.000,0.200,944.000,0.300,552.000,0.500,667.000,1.000,231.000,5.000,0
"04/04/08","15:15:40",24986.000,"cc",28319.695,6.00,6,0.100,22420.000,0.200,1005.000,0.300,586.000,0.500,696.000,1.000,279.000,5.000,0
"04/04/08","15:15:46",24701.000,"cc",28314.422,6.00,6,0.100,22115.000,0.200,1057.000,0.300,585.000,0.500,677.000,1.000,267.000,5.000,0
"04/04/08","15:15:52",24795.000,"cc",28329.721,6.00,6,0.100,22268.000,0.200,1029.000,0.300,584.000,0.500,668.000,1.000,246.000,5.000,0
"04/04/08","15:15:58",25258.000,"cc",28297.916,6.00,6,0.100,22545.000,0.200,1032.000,0.300,610.000,0.500,795.000,1.000,276.000,5.000,0
"04/04/08","15:16:04",24735.000,"cc",28334.330,6.00,6,0.100,22183.000,0.200,990.000,0.300,595.000,0.500,708.000,1.000,259.000,5.000,0
"04/04/08","15:16:10",25052.000,"cc",28304.275,6.00,6,0.100,22509.000,0.200,1032.000,0.300,615.000,0.500,652.000,1.000,244.000,5.000,0
"04/04/08","15:16:16",25109.000,"cc",28295.672,6.00,6,0.100,22644.000,0.200,1005.000,0.300,554.000,0.500,640.000,1.000,266.000,5.000,0
"04/04/08","15:16:22",24760.000,"cc",28330.553,6.00,6,0.100,22312.000,0.200,979.000,0.300,537.000,0.500,670.000,1.000,262.000,5.000,0
"04/04/08","15:16:28",24931.000,"cc",28315.162,6.00,6,0.100,22592.000,0.200,947.000,0.300,577.000,0.500,610.000,1.000,205.000,5.000,0
"04/04/08","15:16:34",24696.000,"cc",28335.066,6.00,6,0.100,22213.000,0.200,953.000,0.300,628.000,0.500,664.000,1.000,238.000,5.000,0
"04/04/08","15:16:40",24593.000,"cc",28335.840,6.00,6,0.100,22294.000,0.200,940.000,0.300,503.000,0.500,621.000,1.000,235.000,5.000,0